Location: Plainartige
(45.6866°N, 1.7993°E)
Time: 00:24:03
(UTC+00:00)

AO-73 - Visible Passes

Search period start: 28 June 2022 00:00
Search period end: 08 July 2022 00:00
Orbit: 579 x 658 km, 97.6° (Epoch: 27 June)

Date Brightness Start Highest point End Pass type
(mag) Time Alt. Az. Time Alt. Az. Time Alt. Az.
28 Jun ? 03:09:34 10° NE 03:13:15 25° E 03:16:57 10° SSE visible
29 Jun ? 03:25:59 10° NNE 03:30:07 36° E 03:34:16 10° SSE visible
02 Jul ? 02:41:45 10° ENE 02:43:54 13° E 02:46:05 10° ESE visible
03 Jul ? 02:57:34 10° NE 03:00:51 19° E 03:04:07 10° SE visible
04 Jul ? 03:13:50 10° NE 03:17:43 28° E 03:21:37 10° SSE visible
05 Jul ? 03:30:17 10° NNE 03:34:34 41° E 03:38:51 10° SSE visible
